Regional Weather Roundup
Issued by NWS State College, PA

Home | Current Version | Previous Version | Text Only | Print | Product List | Glossary On
Versions: 1 2 3 4 5 6 7 8 9 10 11 12 13 14 15 16 17 18 19 20 21 22 23 24 25 26 27 28 29 30 31 32 33 34 35 36 37 38 39 40 41 42 43 44 45 46 47 48 49 50
209
ASUS41 KCTP 240403
RWRCTP

REGIONAL WEATHER ROUNDUP
NATIONAL WEATHER SERVICE STATE COLLEGE PA
1100 PM EST TUE JAN 23 2018

Note: "fair" indicates few or no clouds below 12,000 feet with no
significant weather and/or obstructions to visibility.

* = STATION THAT DOES NOT REPORT PRECIPITATION /E.G. RAIN...SNOW...ETC/
    THUNDER OR FOG.

PAZ002>004-007>009-013>016-020>023-029>032-240500-
WESTERN PENNSYLVANIA

CITY           SKY/WX    TMP DP  RH WIND       PRES   REMARKS
ERIE           CLOUDY    32  29  88 W17G28    29.89R FOG
MEADVILLE      MIX PCPN  30  28  92 W16G23    29.87R
FRANKLIN*      FLURRIES  30  28  92 W16G25    29.87R
NEW CASTLE     CLOUDY    33  29  85 W16G22    29.92R
BEAVER COUNTY  NOT AVBL
BUTLER*        CLOUDY    34  29  82 W14G23    29.89R
PITTSBURGH INT CLOUDY    36  31  82 W15G24    29.90R
PITTSBURGH     CLOUDY    36  29  75 W14G23    29.89S
INDIANA*       CLOUDY    36  34  93 NW14G23   29.88S
LATROBE        CLOUDY    37  32  81 W14G29    29.90R
WASHINGTON CO* CLOUDY    37  30  75 W16G22    29.95S
$$

PAZ004>006-010>012-017>019-024>028-033>037-041-042-045-046-049>053-240500-
CENTRAL PENNSYLVANIA

CITY           SKY/WX    TMP DP  RH WIND       PRES   REMARKS
BRADFORD       CLOUDY    31  26  82 W16G26    29.74S
DUBOIS           N/A    N/A N/A N/A MISG      29.79R
CLEARFIELD     LGT SNOW  34  31  88 W10G20    29.80R FOG
JOHNSTOWN      MIX PCPN  34  30  85 W20G28    29.80R
ALTOONA        CLOUDY    39  30  70 W17G29    29.81S
STATE COLLEGE  CLOUDY    37  32  82 W16G23    29.79R
WILLIAMSPORT   CLOUDY    40  31  70 W10       29.76R
SELINSGROVE    CLOUDY    42  30  62 MISG      29.80R
FT INDIANTOWN  CLOUDY    44  30  59 W13G21    29.78S
CAPITAL CITY   CLOUDY    46  30  53 W6G18     29.81R
HARRISBURG     CLOUDY    43  31  62 W14       29.80S
YORK           CLOUDY    43  31  62 W7        29.82R
$$

PAZ038>040-043-044-047-048-054-055-060>062-067>071-240500-
EASTERN PENNSYLVANIA

CITY           SKY/WX    TMP DP  RH WIND       PRES   REMARKS
SCRANTON       CLOUDY    40  29  64 SW13      29.72R
MOUNT POCONO   MOCLDY    35  27  72 W21G31    29.66R
ALLENTOWN      CLOUDY    44  29  55 W10       29.76S
QUAKERTOWN*    NOT AVBL
READING        CLOUDY    44  33  65 W10       29.77S
LANCASTER      CLOUDY    44  32  62 W14       29.80S
COATESVILLE    MOCLDY    41  30  65 W14       29.79S
POTTSTOWN      CLOUDY    42  29  59 W8        29.79S
BLUE BELL      FAIR      41  32  70 W3        29.79S
DOYLESTOWN     FAIR      43  28  55 W12G20    29.76R
WILLOW GROVE   NOT AVBL
NORTH PHILA    FAIR      44  31  60 W7        29.79R
PHILADELPHIA   FAIR      45  29  53 W12       29.80R
$$




USA.gov is the U.S. government's official web portal to all federal, state and local government web resources and services.